Location: Dugenta
(41.1333°N, 14.4500°E)
Time: 15:03:18
(UTC+00:00)

Cosmos 1777 Rocket - Pass Details

Date: 03 March 2021
Orbit: 759 x 775 km, 74.0° (Epoch: 21 April)

Event Time Altitude Azimuth Distance (km) Brightness Sun altitude
Rises 18:29:42 0° 346° (NNW) 3,244 7.5 -18.5°
Reaches altitude 10° 18:32:11 10° 352° (N) 2,311 6.7 -19.0°
Maximum altitude 18:37:13 45° 66° (ENE) 1,032 4.3 -19.9°
Enters shadow 18:38:06 41° 94° (E) 1,093 4.3 -20.1°
